DW8923 Weather Reports


time (UTC)temp
F
wind
direction
speed
knots
gust
knots
rain 1hr
in
rain 24hr
in
rain mn
in
humidity
%
barometer
mb
20260504020015 69 163 0.0 0.9 0.00 0.00 0.00 53 1016.2
20260504014519 70 163 0.0 0.0 0.00 0.00 0.00 51 1015.8
20260504013120 71 163 0.0 2.6 0.00 0.00 0.00 49 1015.7
20260504011515 72 154 0.0 3.5 0.00 0.00 0.00 47 1015.7
20260504010013 72 154 0.0 2.6 0.00 0.00 0.00 46 1015.8
20260504004512 73 138 1.7 6.1 0.00 0.00 0.00 44 1015.7
20260504003012 74 113 3.5 7.8 0.00 0.00 0.00 42 1015.7
20260504001511 74 151 1.7 6.1 0.00 0.00 0.00 43 1015.8
20260504000007 75 183 1.7 7.8 0.00 0.00 0.00 41 1016.2
20260503234507 75 144 0.9 7.0 0.00 0.00 0.00 39 1016.1
20260503233009 76 136 2.6 9.6 0.00 0.00 0.00 38 1016.4
20260503231504 77 183 2.6 8.7 0.00 0.00 0.00 36 1016.4
20260503230002 78 100 2.6 10.4 0.00 0.00 0.00 36 1016.2
20260503224607 78 174 2.6 8.7 0.00 0.00 0.00 35 1016.5
20260503223059 78 198 3.5 10.4 0.00 0.00 0.00 35 1016.6
20260503221604 79 150 3.5 9.6 0.00 0.00 0.00 33 1016.8
20260503220057 78 130 2.6 13.9 0.00 0.00 0.00 36 1016.9
20260503214558 79 155 3.5 10.4 0.00 0.00 0.00 36 1017.2
20260503213051 79 160 2.6 8.7 0.00 0.00 0.00 34 1017.5
20260503211552 79 117 4.3 9.6 0.00 0.00 0.00 34 1017.8
20260503210051 80 136 5.2 10.4 0.00 0.00 0.00 32 1018.2
20260503204547 80 154 3.5 10.4 0.00 0.00 0.00 34 1018.2
20260503203102 80 124 4.3 11.3 0.00 0.00 0.00 30 1018.5
20260503201542 80 188 3.5 11.3 0.00 0.00 0.00 38 1018.9
20260503200041 80 149 4.3 9.6 0.00 0.00 0.00 32 1019.0
20260503194542 79 121 5.2 11.3 0.00 0.00 0.00 34 1019.2
20260503193038 80 227 2.6 11.3 0.00 0.00 0.00 32 1019.4
20260503191540 80 131 3.5 10.4 0.00 0.00 0.00 34 1019.6
20260503190039 79 85 6.1 11.3 0.00 0.00 0.00 35 1019.9
20260503184530 79 155 2.6 8.7 0.00 0.00 0.00 34 1020.1
20260503183028 79 159 4.3 9.6 0.00 0.00 0.00 34 1020.3
20260503181526 79 159 4.3 10.4 0.00 0.00 0.00 37 1020.6
20260503180030 79 132 4.3 11.3 0.00 0.00 0.00 35 1021.0
20260503174523 79 195 0.9 7.0 0.00 0.00 0.00 34 1021.2
20260503173022 78 165 1.7 11.3 0.00 0.00 0.00 39 1021.3
20260503171521 78 130 2.6 6.1 0.00 0.00 0.00 39 1021.6
20260503081505 51 259 0.0 0.9 0.00 0.01 0.00 91 1020.6
20260503071600 51 67 0.0 0.0 0.00 0.01 0.00 90 1020.9
20260503060110 53 67 0.0 0.0 0.00 0.01 0.00 87 1021.0
20260503054600 53 67 0.0 0.0 0.00 0.01 0.00 87 1021.1
20260503053046 54 67 0.0 0.0 0.00 0.01 0.00 86 1021.2
20260503051543 54 67 0.0 0.0 0.00 0.01 0.00 86 1021.2
20260503050042 55 67 0.0 0.0 0.00 0.01 0.00 86 1021.1
20260503044540 55 67 0.0 0.0 0.00 0.01 0.01 85 1021.0
20260503043039 56 67 0.0 0.0 0.00 0.01 0.01 85 1021.1
20260503041539 56 67 0.0 0.0 0.00 0.01 0.01 84 1021.0
20260503040040 57 67 0.0 0.0 0.00 0.01 0.01 84 1020.9
20260503034538 57 67 0.0 0.0 0.00 0.01 0.01 81 1020.9
20260503033037 58 67 0.0 0.0 0.00 0.01 0.01 81 1020.7
20260503031538 59 67 0.0 0.9 0.00 0.01 0.01 79 1020.6
20260503030044 59 67 0.0 0.0 0.00 0.01 0.01 78 1020.6
20260503024536 60 67 0.0 0.0 0.00 0.01 0.01 75 1020.4
20260503023036 61 67 0.0 0.0 0.00 0.01 0.01 73 1020.0
20260503021534 62 67 0.0 0.0 0.00 0.01 0.01 72 1019.8